LTG8471 SBSJ-SBKP

Flight info

Callsign LTG8471
Flight time 0h 28m
Altitude 12000
Route VERIFICAR VIA SIMBRIEF
Aircraft B76F/H-SDE3FGHIM3RWXYZ/LB1

Departure

Time 2026-05-01 13:46
Airport Professor Urbano Ernesto Stumpf Airport (SBSJ)

Arrival

Time 2026-05-01 14:15
Airport Viracopos International Airport (SBKP)
Time Latitude Longitude Altitude Speed Heading
2026-05-01 13:22 -23.22651 -45.86116 2140 ft 0 kts 45°
2026-05-01 13:37 -23.22652 -45.86116 2142 ft 0 kts 45°
2026-05-01 13:37 -23.22657 -45.86122 2140 ft 0 kts 45°
2026-05-01 13:38 -23.22680 -45.86137 2140 ft 2 kts
2026-05-01 13:38 -23.22695 -45.86137 2140 ft 2 kts 351°
2026-05-01 13:38 -23.22709 -45.86133 2140 ft 2 kts 331°
2026-05-01 13:39 -23.22719 -45.86125 2140 ft 1 kts 315°
2026-05-01 13:39 -23.22721 -45.86124 2140 ft 0 kts 314°
2026-05-01 13:41 -23.22720 -45.86124 2140 ft 0 kts 314°
2026-05-01 13:41 -23.22716 -45.86128 2140 ft 3 kts 314°
2026-05-01 13:41 -23.22688 -45.86159 2140 ft 7 kts 314°
2026-05-01 13:41 -23.22643 -45.86209 2140 ft 10 kts 315°
2026-05-01 13:42 -23.22581 -45.86276 2140 ft 14 kts 315°
2026-05-01 13:42 -23.22510 -45.86353 2140 ft 13 kts 315°
2026-05-01 13:42 -23.22445 -45.86422 2140 ft 12 kts 315°
2026-05-01 13:42 -23.22386 -45.86486 2140 ft 10 kts 315°
2026-05-01 13:43 -23.22335 -45.86541 2140 ft 9 kts 315°
2026-05-01 13:43 -23.22287 -45.86594 2140 ft 10 kts 315°
2026-05-01 13:43 -23.22218 -45.86668 2140 ft 17 kts 315°
2026-05-01 13:43 -23.22124 -45.86777 2140 ft 20 kts 306°
2026-05-01 13:44 -23.22049 -45.86890 2139 ft 16 kts 305°
2026-05-01 13:44 -23.21986 -45.86988 2139 ft 15 kts 305°
2026-05-01 13:44 -23.21930 -45.87077 2139 ft 13 kts 298°
2026-05-01 13:44 -23.21940 -45.87157 2139 ft 10 kts 225°
2026-05-01 13:45 -23.22000 -45.87162 2139 ft 8 kts 147°
2026-05-01 13:45 -23.22032 -45.87127 2139 ft 0 kts 134°
2026-05-01 13:45 -23.22180 -45.86965 2139 ft 58 kts 134°
2026-05-01 13:46 -23.22603 -45.86508 2140 ft 110 kts 134°
2026-05-01 13:46 -23.23262 -45.85790 2141 ft 154 kts 135°
2026-05-01 13:46 -23.24084 -45.84920 2308 ft 175 kts 134°
2026-05-01 13:46 -23.24971 -45.83964 2805 ft 177 kts 133°
2026-05-01 13:47 -23.25849 -45.83011 3260 ft 182 kts 133°
2026-05-01 13:47 -23.26774 -45.81997 3590 ft 198 kts 133°
2026-05-01 13:47 -23.27802 -45.80872 3902 ft 221 kts 133°
2026-05-01 13:47 -23.28664 -45.79438 4369 ft 233 kts 103°
2026-05-01 13:48 -23.28678 -45.77654 4838 ft 246 kts 69°
2026-05-01 13:48 -23.27762 -45.76121 5589 ft 247 kts 37°
2026-05-01 13:48 -23.26213 -45.75282 6046 ft 259 kts 11°
2026-05-01 13:48 -23.24389 -45.75259 6012 ft 257 kts 354°
2026-05-01 13:49 -23.22636 -45.75421 5969 ft 247 kts 358°
2026-05-01 13:49 -23.20901 -45.75462 5980 ft 243 kts
2026-05-01 13:49 -23.19199 -45.75452 5986 ft 245 kts
2026-05-01 13:49 -23.17506 -45.75800 6013 ft 256 kts 334°
2026-05-01 13:50 -23.15925 -45.76849 6393 ft 274 kts 331°
2026-05-01 13:50 -23.14258 -45.77847 7372 ft 273 kts 333°
2026-05-01 13:50 -23.12562 -45.78793 8155 ft 278 kts 334°
2026-05-01 13:50 -23.10807 -45.79723 9026 ft 281 kts 335°
2026-05-01 13:51 -23.09029 -45.80641 9853 ft 284 kts 335°
2026-05-01 13:51 -23.07224 -45.81556 10562 ft 291 kts 335°
2026-05-01 13:51 -23.05340 -45.82502 10977 ft 310 kts 335°
2026-05-01 13:51 -23.03302 -45.83538 11398 ft 328 kts 332°
2026-05-01 13:52 -23.01425 -45.85041 11786 ft 347 kts 314°
2026-05-01 13:52 -22.99951 -45.87215 12195 ft 365 kts 299°
2026-05-01 13:52 -22.98670 -45.89659 12257 ft 375 kts 303°
2026-05-01 13:52 -22.97178 -45.91984 12262 ft 375 kts 305°
2026-05-01 13:53 -22.95623 -45.94282 12248 ft 372 kts 307°
2026-05-01 13:53 -22.92451 -45.98696 12264 ft 371 kts 308°
2026-05-01 13:53 -22.90837 -46.00883 12258 ft 372 kts 309°
2026-05-01 13:54 -22.89184 -46.03102 12258 ft 372 kts 309°
2026-05-01 13:54 -22.87562 -46.05271 12260 ft 372 kts 309°
2026-05-01 13:54 -22.85919 -46.07459 12267 ft 372 kts 309°
2026-05-01 13:54 -22.84279 -46.09640 12269 ft 372 kts 309°
2026-05-01 13:55 -22.82639 -46.11818 12271 ft 372 kts 309°
2026-05-01 13:55 -22.81002 -46.13989 12270 ft 372 kts 309°
2026-05-01 13:55 -22.79357 -46.16170 12274 ft 373 kts 309°
2026-05-01 13:55 -22.77704 -46.18362 12278 ft 373 kts 309°
2026-05-01 13:56 -22.76059 -46.20540 12271 ft 372 kts 309°
2026-05-01 13:56 -22.74421 -46.22709 12270 ft 371 kts 309°
2026-05-01 13:56 -22.72787 -46.24872 12271 ft 370 kts 309°
2026-05-01 13:56 -22.71132 -46.27061 12274 ft 371 kts 309°
2026-05-01 13:57 -22.69501 -46.29219 12277 ft 371 kts 309°
2026-05-01 13:57 -22.67868 -46.31376 12273 ft 371 kts 309°
2026-05-01 13:57 -22.66208 -46.33570 12271 ft 371 kts 309°
2026-05-01 13:57 -22.64569 -46.35735 12267 ft 372 kts 309°
2026-05-01 13:58 -22.62930 -46.37898 12264 ft 371 kts 309°
2026-05-01 13:58 -22.61294 -46.40057 12265 ft 372 kts 309°
2026-05-01 13:58 -22.59630 -46.42251 12262 ft 372 kts 309°
2026-05-01 13:58 -22.57992 -46.44411 12255 ft 372 kts 309°
2026-05-01 13:59 -22.56358 -46.46564 12247 ft 371 kts 309°
2026-05-01 13:59 -22.54715 -46.48728 12241 ft 371 kts 309°
2026-05-01 13:59 -22.53052 -46.50919 12240 ft 371 kts 309°
2026-05-01 13:59 -22.51418 -46.53069 12239 ft 370 kts 309°
2026-05-01 14:00 -22.49811 -46.55185 12227 ft 356 kts 309°
2026-05-01 14:00 -22.48257 -46.57229 12188 ft 339 kts 309°
2026-05-01 14:00 -22.46786 -46.59163 12145 ft 324 kts 309°
2026-05-01 14:00 -22.45375 -46.61019 12000 ft 315 kts 309°
2026-05-01 14:01 -22.44173 -46.63024 11193 ft 330 kts 294°
2026-05-01 14:01 -22.43560 -46.65438 10391 ft 342 kts 276°
2026-05-01 14:01 -22.43719 -46.67965 10268 ft 329 kts 257°
2026-05-01 14:01 -22.44584 -46.70215 10239 ft 315 kts 237°
2026-05-01 14:02 -22.45934 -46.72023 10218 ft 301 kts 230°
2026-05-01 14:02 -22.47267 -46.73737 10067 ft 293 kts 232°
2026-05-01 14:02 -22.48541 -46.75459 9896 ft 290 kts 232°
2026-05-01 14:02 -22.49791 -46.77182 9741 ft 290 kts 233°
2026-05-01 14:03 -22.51021 -46.78896 9595 ft 289 kts 233°
2026-05-01 14:03 -22.52243 -46.80610 9464 ft 288 kts 233°
2026-05-01 14:03 -22.53466 -46.82332 9336 ft 287 kts 233°
2026-05-01 14:03 -22.54682 -46.84048 9214 ft 286 kts 234°
2026-05-01 14:04 -22.55912 -46.85787 9088 ft 286 kts 234°
2026-05-01 14:04 -22.57115 -46.87491 8980 ft 285 kts 234°
2026-05-01 14:04 -22.58326 -46.89208 8964 ft 283 kts 234°
2026-05-01 14:04 -22.59110 -46.90321 8962 ft 283 kts 233°
2026-05-01 14:05 -22.60729 -46.92619 8955 ft 286 kts 234°
2026-05-01 14:05 -22.61940 -46.94339 8948 ft 287 kts 233°
2026-05-01 14:05 -22.63158 -46.96069 8945 ft 287 kts 234°
2026-05-01 14:05 -22.64372 -46.97795 8938 ft 286 kts 234°
2026-05-01 14:06 -22.65574 -46.99504 8868 ft 288 kts 234°
2026-05-01 14:06 -22.66799 -47.01246 8640 ft 289 kts 234°
2026-05-01 14:06 -22.68012 -47.02970 8416 ft 285 kts 234°
2026-05-01 14:06 -22.69208 -47.04673 8189 ft 283 kts 234°
2026-05-01 14:07 -22.70415 -47.06390 7965 ft 282 kts 234°
2026-05-01 14:07 -22.71597 -47.08074 7746 ft 281 kts 234°
2026-05-01 14:07 -22.72799 -47.09786 7519 ft 281 kts 234°
2026-05-01 14:08 -22.75167 -47.13160 7088 ft 280 kts 234°
2026-05-01 14:08 -22.76353 -47.14850 6868 ft 277 kts 234°
2026-05-01 14:08 -22.77498 -47.16484 6652 ft 273 kts 234°
2026-05-01 14:08 -22.78646 -47.18121 6402 ft 263 kts 234°
2026-05-01 14:09 -22.79728 -47.19663 6247 ft 250 kts 234°
2026-05-01 14:09 -22.80775 -47.21159 6096 ft 242 kts 234°
2026-05-01 14:09 -22.81926 -47.22508 5790 ft 244 kts 219°
2026-05-01 14:09 -22.83248 -47.23609 5623 ft 232 kts 219°
2026-05-01 14:10 -22.84499 -47.24672 5348 ft 226 kts 219°
2026-05-01 14:10 -22.85737 -47.25716 5116 ft 220 kts 218°
2026-05-01 14:10 -22.86931 -47.26719 4882 ft 218 kts 218°
2026-05-01 14:10 -22.88207 -47.27612 4616 ft 217 kts 196°
2026-05-01 14:11 -22.89684 -47.27673 4387 ft 208 kts 158°
2026-05-01 14:11 -22.91736 -47.25865 4082 ft 176 kts 126°
2026-05-01 14:11 -22.92480 -47.24862 3973 ft 164 kts 125°
2026-05-01 14:12 -22.93186 -47.23896 3979 ft 159 kts 125°
2026-05-01 14:12 -22.93881 -47.22939 3897 ft 167 kts 125°
2026-05-01 14:12 -22.94599 -47.21946 3735 ft 159 kts 125°
2026-05-01 14:12 -22.95290 -47.20994 3510 ft 160 kts 125°
2026-05-01 14:13 -22.95970 -47.20052 3346 ft 157 kts 125°
2026-05-01 14:13 -22.96425 -47.19424 3200 ft 156 kts 125°
2026-05-01 14:13 -22.97320 -47.18188 2946 ft 158 kts 125°
2026-05-01 14:13 -22.97996 -47.17245 2755 ft 157 kts 126°
2026-05-01 14:14 -22.98673 -47.16310 2568 ft 154 kts 126°
2026-05-01 14:14 -22.99338 -47.15389 2370 ft 157 kts 126°
2026-05-01 14:14 -23.00021 -47.14455 2201 ft 153 kts 126°
2026-05-01 14:14 -23.00631 -47.13602 2183 ft 128 kts 128°
2026-05-01 14:15 -23.00989 -47.13104 2183 ft 49 kts 128°
2026-05-01 14:15 -23.01136 -47.12913 2183 ft 18 kts 142°
2026-05-01 14:15 -23.01232 -47.12849 2183 ft 13 kts 154°
2026-05-01 14:15 -23.01304 -47.12814 2183 ft 8 kts 156°
2026-05-01 14:16 -23.01360 -47.12794 2184 ft 7 kts 182°
2026-05-01 14:16 -23.01395 -47.12826 2183 ft 7 kts 252°
2026-05-01 14:16 -23.01377 -47.12878 2183 ft 9 kts 308°
2026-05-01 14:16 -23.01325 -47.12949 2183 ft 14 kts 308°
2026-05-01 14:17 -23.01255 -47.13049 2183 ft 18 kts 307°
2026-05-01 14:17 -23.01167 -47.13171 2183 ft 21 kts 308°
2026-05-01 14:17 -23.01077 -47.13296 2183 ft 20 kts 308°
2026-05-01 14:17 -23.00992 -47.13413 2183 ft 18 kts 308°
2026-05-01 14:18 -23.00918 -47.13518 2182 ft 16 kts 308°
2026-05-01 14:18 -23.00850 -47.13614 2182 ft 15 kts 307°
2026-05-01 14:18 -23.00786 -47.13706 2182 ft 14 kts 308°
2026-05-01 14:18 -23.00745 -47.13761 2182 ft 14 kts 308°
2026-05-01 14:19 -23.00714 -47.13885 2182 ft 13 kts 276°
2026-05-01 14:19 -23.00691 -47.13983 2182 ft 13 kts 293°
2026-05-01 14:19 -23.00636 -47.14072 2182 ft 14 kts 308°
2026-05-01 14:19 -23.00573 -47.14160 2182 ft 13 kts 308°
2026-05-01 14:20 -23.00532 -47.14225 2182 ft 7 kts 283°
2026-05-01 14:20 -23.00588 -47.14299 2182 ft 4 kts 216°
2026-05-01 14:20 -23.00595 -47.14305 2182 ft 0 kts 217°